Location: Shenandoah County Park
(38.9356°N, 78.4524°W)
Time: 11:38:46
(UTC-05:00)

Transit 4A - All Passes

Search period start: 29 January 2023 00:00
Search period end: 08 February 2023 00:00
Orbit: 871 x 973 km, 66.8° (Epoch: 28 January)

Date Brightness Start Highest point End Pass type
(mag) Time Alt. Az. Time Alt. Az. Time Alt. Az.
29 Jan - 02:02:47 10° NNE 02:03:47 10° NE 02:04:48 10° NE night (unlit)
29 Jan - 03:45:44 10° NNW 03:51:33 52° ENE 03:57:29 10° SE visible
29 Jan - 05:32:50 10° NW 05:37:31 24° WSW 05:42:16 10° SSW visible
29 Jan - 17:09:51 10° ESE 17:11:33 11° ESE 17:13:15 10° E daylight
29 Jan - 18:51:08 10° SSW 18:56:59 90° ESE 19:02:50 10° NNE visible
29 Jan - 20:40:34 10° W 20:44:07 16° NW 20:47:42 10° N visible
30 Jan - 02:10:16 10° N 02:13:30 15° NE 02:16:45 10° ENE night (unlit)
30 Jan - 03:54:49 10° NNW 04:00:49 77° ENE 04:06:57 10° SSE visible
30 Jan - 05:43:07 10° WNW 05:46:28 15° WSW 05:49:51 10° SW visible
30 Jan - 17:16:33 10° SSE 17:20:27 19° ESE 17:24:21 10° ENE daylight
30 Jan - 19:00:28 10° SW 19:06:13 61° WNW 19:12:00 10° NNE visible
30 Jan - 20:51:50 10° WNW 20:53:48 12° NW 20:55:45 10° NNW visible
31 Jan - 02:18:45 10° N 02:23:07 20° NE 02:27:31 10° E night (unlit)
31 Jan - 04:04:03 10° NNW 04:10:01 73° WSW 04:16:07 10° SSE visible
31 Jan - 17:24:30 10° SSE 17:29:26 29° ESE 17:34:21 10° NE daylight
31 Jan - 19:10:04 10° SW 19:15:32 41° NW 19:21:02 10° NNE visible
01 Feb - 02:27:31 10° N 02:32:37 29° NE 02:37:49 10° ESE night (unlit)
01 Feb - 04:13:25 10° NW 04:19:08 48° WSW 04:25:00 10° S visible
01 Feb - 17:32:58 10° S 17:38:28 45° ESE 17:43:58 10° NE daylight
01 Feb - 19:19:57 10° WSW 19:24:56 29° NW 19:29:57 10° N visible
02 Feb - 02:36:24 10° NNW 02:42:01 41° NE 02:47:45 10° SE night (unlit)
02 Feb - 04:22:59 10° NW 04:28:12 32° WSW 04:33:32 10° S night (unlit)
02 Feb - 17:41:47 10° SSW 17:47:34 69° ESE 17:53:21 10° NNE daylight
02 Feb - 19:30:12 10° W 19:34:26 20° NW 19:38:42 10° N visible
03 Feb - 01:01:39 10° NNE 01:03:45 12° NE 01:05:52 10° ENE night (unlit)
03 Feb - 02:45:26 10° NNW 02:51:21 59° ENE 02:57:23 10° SE night (unlit)
03 Feb - 04:32:52 10° WNW 04:37:13 21° WSW 04:41:37 10° SSW night (unlit)
03 Feb - 16:08:29 10° SE 16:11:13 14° ESE 16:13:55 10° ENE daylight
03 Feb - 17:50:55 10° SSW 17:56:45 80° WNW 18:02:36 10° NNE daylight
03 Feb - 19:40:54 10° WNW 19:44:02 15° NW 19:47:11 10° N visible
04 Feb - 01:09:45 10° N 01:13:26 16° NE 01:17:09 10° E night (unlit)
04 Feb - 02:54:34 10° NNW 03:00:36 87° ENE 03:06:46 10° SSE night (unlit)
04 Feb - 04:43:31 10° WNW 04:46:08 13° WSW 04:48:47 10° SW night (unlit)
04 Feb - 16:15:49 10° SSE 16:20:09 22° ESE 16:24:27 10° ENE daylight
04 Feb - 18:00:20 10° SW 18:06:01 53° WNW 18:11:43 10° NNE visible
04 Feb - 19:52:53 10° NW 19:53:44 10° NW 19:54:36 10° NNW visible
05 Feb - 01:18:20 10° N 01:23:00 23° NE 01:27:43 10° E night (unlit)
05 Feb - 03:03:51 10° NW 03:09:47 64° WSW 03:15:50 10° SSE night (unlit)
05 Feb - 16:23:59 10° S 16:29:08 33° ESE 16:34:17 10° NE daylight
05 Feb - 18:10:01 10° WSW 18:15:21 36° NW 18:20:43 10° NNE visible
06 Feb - 01:27:09 10° N 01:32:28 32° NE 01:37:52 10° ESE night (unlit)
06 Feb - 03:13:16 10° NW 03:18:53 42° WSW 03:24:36 10° S night (unlit)
06 Feb - 16:32:34 10° S 16:38:12 52° ESE 16:43:48 10° NE daylight
06 Feb - 18:20:02 10° WSW 18:24:47 25° NW 18:29:35 10° N visible
07 Feb - 01:36:05 10° NNW 01:41:51 46° NE 01:47:43 10° SE night (unlit)
07 Feb - 03:22:56 10° NW 03:27:55 28° WSW 03:33:01 10° SSW night (unlit)
07 Feb - 16:41:30 10° SSW 16:47:19 79° ESE 16:53:09 10° NNE daylight
07 Feb - 18:30:24 10° W 18:34:19 18° NW 18:38:16 10° N visible
